User: anonymous   Login
Location: Theydon Bois
(51.6750°N, 0.1050°E)
Time: 08:56:16
(UTC+01:00)
Language:

COSMOS 2428 - Orbit

View from above orbital plane
View from above orbital plane
View from above satellite
View from above satellite

Ground track
Ground track

The orbit data is extracted from the following two-line orbital elements,

1 31792U 07029A   17290.09651458  .00000354  00000-0  21808-3 0  9991
2 31792  70.9303 156.2279 0006065 102.9040 257.2758 14.12355584531284
Epoch (UTC): 17 October 2017 02:18:58
Eccentricity: 0.0006065
inclination: 70.9303°
perigee height: 847 km
apogee height: 856 km
right ascension of ascending node: 156.2279°
argument of perigee: 102.9040°
revolutions per day: 14.12355584
mean anomaly at epoch: 257.2758°
orbit number at epoch: 53128

The dashed part of the orbit path shows where the satellite is in the earth's shadow,  

DLR